This is the latest recevied weather packets stored in our database for station/object K1KOF. If no packets are shown the sender has not sent any weather packets the latest 10 day(s).
| Time | Temp. | Humidity | Pressure | Rain* | Wind** | Luminosity | Snow |
|---|---|---|---|---|---|---|---|
| 1778326406 | 15.56° C | 99% | 1023.3 hPa | 0 mm | - | 45 W/m² | - |
| 1778326103 | 15.56° C | 99% | 1023.3 hPa | 0 mm | - | 28 W/m² | - |
| 1778325800 | 15.56° C | 99% | 1023.2 hPa | 0 mm | - | 24 W/m² | - |
| 1778325497 | 15.56° C | 99% | 1023.5 hPa | 0 mm | - | 17 W/m² | - |
| 1778325194 | 15.56° C | 99% | 1023.5 hPa | 0 mm | - | 9 W/m² | - |
| 1778324892 | 15.56° C | 99% | 1023.6 hPa | 0 mm | - | 9 W/m² | - |
| 1778324587 | 15° C | 99% | 1023.6 hPa | 0 mm | - | 6 W/m² | - |
| 1778324286 | 15° C | 99% | 1023.6 hPa | 0 mm | - | 4 W/m² | - |
| 1778323984 | 15° C | 99% | 1023.6 hPa | 0 mm | - | 4 W/m² | - |
| 1778323680 | 15° C | 99% | 1023.8 hPa | 0 mm | - | 2 W/m² | - |
| 1778323377 | 15° C | 99% | 1023.6 hPa | 0 mm | - | 1 W/m² | - |
| 1778323075 | 15° C | 99% | 1023.5 hPa | 0 mm | - | 0 W/m² | - |
| 1778322772 | 15° C | 99% | 1023.3 hPa | 0 mm | - | 0 W/m² | - |
| 1778322470 | 14.44° C | 99% | 1023.4 hPa | 0 mm | - | 0 W/m² | - |
| 1778322167 | 14.44° C | 99% | 1023.3 hPa | 0 mm | - | 0 W/m² | - |
| 1778321863 | 14.44° C | 99% | 1023.5 hPa | 0 mm | - | 0 W/m² | - |
| 1778321559 | 14.44° C | 99% | 1023.3 hPa | 0 mm | - | 0 W/m² | - |
| 1778321257 | 14.44° C | 99% | 1023.1 hPa | 0 mm | - | 0 W/m² | - |
| 1778320954 | 14.44° C | 99% | 1023.1 hPa | 0 mm | - | 0 W/m² | - |
| 1778320650 | 14.44° C | 99% | 1023 hPa | 0 mm | - | 0 W/m² | - |
| 1778320348 | 15° C | 99% | 1022.6 hPa | 0 mm | - | 0 W/m² | - |
| 1778320045 | 15° C | 99% | 1022.2 hPa | 0 mm | - | 0 W/m² | - |
| 1778319742 | 15° C | 99% | 1022.4 hPa | 0 mm | - | 0 W/m² | - |
| 1778319440 | 14.44° C | 99% | 1022.1 hPa | 0 mm | - | 0 W/m² | - |
| 1778319137 | 14.44° C | 99% | 1022.6 hPa | 0 mm | - | 0 W/m² | - |
* Rain latest hour (hover to see other rain measurements)
** Current wind speed in m/s (hover to see current wind gust speed)